Regional Weather Roundup
Issued by NWS

Home | Current Version | Previous Version | Text Only | Print | Product List | Glossary On
Versions: 1 2 3 4 5 6 7 8 9 10 11 12 13 14 15 16 17 18 19 20 21 22 23 24 25 26 27 28 29 30 31 32 33 34 35 36 37 38 39 40 41 42 43 44 45 46 47 48 49 50
000
ASUS42 KFFC 252103
RWRGA
WEATHER ROUNDUP FOR GEORGIA
NATIONAL WEATHER SERVICE PEACHTREE CITY GA
500 PM EDT SAT APR 25 2015

NOTE: "FAIR" INDICATES FEW OR NO CLOUDS BELOW 12,000 FEET WITH NO
SIGNIFICANT WEATHER AND/OR OBSTRUCTIONS TO VISIBILITY.

* = USE WITH CAUTION. THE STATIONS MARKED WITH AN ASTERISK MAY NOT
REPORT WEATHER SUCH AS PRECIPITATION, FOG, OR THUNDER AND ARE NOT
QUALITY CONTROLLED BY NWS.

THE REMARK "TC" DENOTES TEMPERATURE READING IN DEGREES CELSIUS.

GAZ001>058-252200-
NORTH GEORGIA

CITY           SKY/WX    TMP DP  RH WIND       PRES   REMARKS
ATLANTA        PTSUNNY   79  65  62 W14G21    29.69F
ATHENS         PTSUNNY   76  65  68 VRB6      29.69F
CHAMBLEE       PTSUNNY   76  65  68 SW15G23   29.68F
PEACHTREE CITY MOSUNNY   80  68  66 SW6       29.70F
ROME           CLOUDY    75  66  73 SW7       29.65F
WEST ATLANTA   PTSUNNY   77  66  68 SW7       29.68F
GAINESVILLE    PTSUNNY   73  63  70 W3        29.70F
CARTERSVILLE   PTSUNNY   77  65  66 CALM      29.67F


CITY           SKY/WX    TMP DP  RH WIND       PRES   REMARKS
DALTON*        CLOUDY    73  64  73 S5        29.67S
LAWRENCEVILLE* PTSUNNY   75  61  60 SW9       29.68F
KENNESAW*      PTSUNNY   77  64  65 W15       29.69
BLAIRSVILLE*     N/A     73  35  25 W12G18    29.70S
$$

GAZ059>098-102>109-252200-
CENTRAL GEORGIA

CITY           SKY/WX    TMP DP  RH WIND       PRES   REMARKS
AUGUSTA-BUSH   CLOUDY    77  67  71 W9        29.68F
AUGUSTA-DANIEL CLOUDY    77  66  68 VRB6      29.69F
COLUMBUS       MOSUNNY   82  69  64 W13G20    29.68F
MACON          PTSUNNY   82  71  69 SW3       29.68F
ROBINS AFB     PTSUNNY   84  70  63 W8        29.67F


CITY           SKY/WX    TMP DP  RH WIND       PRES   REMARKS
LAGRANGE*      PTSUNNY   82  72  72 W7        29.71S
SYLVANIA*      PTSUNNY   78  70  78 SW8       29.72F
MILLEDGEVILLE* PTSUNNY   79  72  78 W3        29.69F
$$

GAZ099>101-110>166-252200-
SOUTH GEORGIA

CITY           SKY/WX    TMP DP  RH WIND       PRES   REMARKS
SAVANNAH       PTSUNNY   79  69  71 SW9       29.71F
VALDOSTA       PTSUNNY   79  70  74 VRB7      29.77S
ALMA           PTSUNNY   85  69  58 SW13      29.71F
ST SIMONS      MOSUNNY   79  68  69 SW13      29.73F
FT STEWART     MOSUNNY   83  71  67 SW6       29.68F
ALBANY         CLOUDY    83  72  69 SW9G20    29.73F
HUNTER AFB     MOSUNNY   81  72  75 SW9       29.69F
MOODY AFB      MOSUNNY   82  70  67 S17       29.73F
BRUNSWICK      MOSUNNY   81  68  65 SW14G26   29.73F


CITY           SKY/WX    TMP DP  RH WIND       PRES   REMARKS
BAINBRIDGE*    MOSUNNY   86  75  70 SW12      29.72F HX  95
MOULTRIE*      MOSUNNY   82  77  83 SW12G17   29.73F HX  91
VIDALIA*       PTSUNNY   82  70  65 W9G17     29.71F
WAYCROSS*      CLOUDY    85  74  70 SW15G25   29.74R HX  93
DOUGLAS*       PTSUNNY   86  70  58 SW14      29.72F HX  90
$$


USA.gov is the U.S. government's official web portal to all federal, state and local government web resources and services.